Regional Weather Roundup
Issued by NWS

Home | Current Version | Previous Version | Text Only | Print | Product List | Glossary On
Versions: 1 2 3 4 5 6 7 8 9 10 11 12 13 14 15 16 17 18 19 20 21 22 23 24 25 26 27 28 29 30 31 32 33 34 35 36 37 38 39 40 41 42 43 44 45 46 47 48 49 50
000
ASUS44 KJAN 080210
RWRMS

MISSISSIPPI HOURLY WEATHER ROUNDUP
NATIONAL WEATHER SERVICE JACKSON MS
900 PM CDT TUE JUL 07 2015

NOTE: "FAIR: INDICATES FEW OR NO CLOUDS BELOW 12,000 FEET WITH NO
SIGNIFICANT WEATHER AND/OR OBSTRUCTIONS TO VISIBILITY.

MSZ001>002-007>008-010>013-018>021-025>028-034>036-080300-
NORTHWEST MISSISSIPPI

CITY           SKY/WX    TMP DP  RH WIND       PRES   REMARKS
CLARKSDALE     FAIR      82  81  94 SE9       30.04R HX  95
CLEVELAND      FAIR      81  80  96 S5        30.02F HX  90
GREENWOOD      MOCLDY    78  67  68 SE5       30.05F
GREENVILLE     MOCLDY    82  77  84 S9        30.03R HX  90
OLIVE BRANCH     N/A     79  79 100 S7        30.05R
OXFORD         FAIR      73  72  94 SE3       30.09R
TUNICA         CLOUDY    81  75  83 S7        30.03S
$$

MSZ003>006-009-014>017-022>024-029>033-037>039-080300-
NORTHEAST MISSISSIPPI

CITY           SKY/WX    TMP DP  RH WIND       PRES   REMARKS
COLUMBUS AFB   MOCLDY    83  74  76 SW3       30.08R
CORINTH        FAIR      82  72  69 SW6       30.06R
GOLDN TRIANGLE MOCLDY    82  72  69 S3        30.09R
STARKVILLE     FAIR      79  72  78 CALM      30.09R
TUPELO         MOCLDY    82  76  81 SW5       30.07R
$$

MSZ040-058-080300-
CENTRAL MISSISSIPPI

CITY           SKY/WX    TMP DP  RH WIND       PRES   REMARKS
JACKSON INTL   MOCLDY    78  68  71 CALM      30.08F
JACKSON HAWKNS CLOUDY    78  71  79 CALM      30.09R
MERIDIAN KEY   PTCLDY    78  76  93 CALM      30.11R
MERIDIAN NAS   PTCLDY    77  75  93 CALM      30.11R
VICKSBURG      MOCLDY    77  68  73 S6        30.06R
$$

MSZ059>079-080300-
SOUTH MISSISSIPPI

CITY           SKY/WX    TMP DP  RH WIND       PRES   REMARKS
BROOKHAVEN       N/A     72  72 100 SW3       30.11S
HATTIESBURG    PTCLDY    78  69  73 S3        30.12R
MCCOMB         CLOUDY    74  69  85 SW6       30.10R
NATCHEZ        NOT AVBL
PINE BELT      PTCLDY    77 N/A N/A S3        30.13R
$$

MSZ080>082-080300-
COASTAL MISSISSIPPI

CITY           SKY/WX    TMP DP  RH WIND       PRES   REMARKS
BAY ST LOUIS   CLEAR     82  72  69 SE6       30.11S
BILOXI         CLEAR     84  74  70 S10       30.12S HX  91
PASCAGOULA     CLEAR     81  75  82 S3        30.13R
GULFPORT       CLEAR     84  74  71 S7        30.12R HX  91
$$



USA.gov is the U.S. government's official web portal to all federal, state and local government web resources and services.